Theta_e
314 313 314 313 312 309 305 301 301 300 300 299 299 299 299 299 300 301 305 306 310 313 316 318 319 320 321 324 324 321 321 318 318 319 319 319 320 320 320 322 323 323 324
312 311 311 309 307 304 302 301 300 300 299 299 298 298 298 299 299 300 304 308 310 313 315 318 319 320 322 317 316 319 318 315 313 316 315 315 315 315 317 318 318 318 320
309 308 308 306 303 301 300 300 299 299 298 297 297 297 297 298 299 299 302 308 311 311 316 317 319 321 319 314 314 319 315 312 314 314 312 313 314 316 316 315 315 316 317
308 306 305 303 300 299 299 298 297 297 297 297 296 296 297 298 297 298 300 306 308 310 307 308 309 311 310 310 312 315 311 312 312 310 310 312 313 312 312 312 313 314 315
306 304 304 302 299 298 298 297 297 297 296 296 295 296 297 297 296 297 300 302 301 302 302 298 301 303 304 308 309 309 309 310 309 308 310 309 309 309 310 311 311 312 313
304 303 302 301 298 297 297 297 296 296 297 296 292 293 295 296 296 297 296 297 296 295 296 296 298 299 301 303 305 307 309 308 307 307 306 306 306 306 307 309 310 310 311
304 303 302 300 298 297 297 296 296 294 294 295 294 293 293 294 294 295 295 295 294 293 294 295 296 297 300 302 305 307 307 306 304 303 303 303 304 305 306 307 307 308 309
304 302 301 299 298 297 296 296 295 294 295 294 294 295 291 290 292 293 293 293 293 293 292 292 293 294 297 301 303 303 301 301 301 301 301 301 302 303 304 305 305 306 307
303 301 300 299 298 297 296 296 295 295 293 293 295 296 291 293 291 291 291 292 291 292 292 291 291 292 295 299 299 295 294 295 296 297 298 298 300 301 302 303 304 304 305
302 301 300 300 298 297 297 297 296 296 297 292 292 291 293 295 292 288 290 291 291 290 291 291 291 291 293 295 295 290 290 291 292 293 294 295 297 298 300 301 301 302 303
300 300 299 299 298 297 297 297 295 295 296 296 294 291 291 291 292 294 289 288 290 290 291 290 291 291 291 293 294 289 288 289 290 290 291 293 294 295 297 298 299 300 301
298 298 298 298 297 296 296 296 295 295 295 295 296 293 292 291 290 291 291 290 289 289 290 290 290 291 291 292 289 285 285 287 288 289 290 291 292 293 294 296 297 298 299
296 296 296 295 295 295 296 295 294 294 294 293 295 294 295 295 293 293 293 290 288 287 287 289 290 290 290 292 289 284 283 284 286 287 289 289 290 291 292 294 295 296 297
297 297 296 295 295 295 294 294 293 293 293 293 293 294 293 293 292 292 291 290 286 286 286 286 289 289 290 290 288 283 285 282 284 286 287 288 289 290 291 292 294 295 295
297 296 296 294 295 294 293 292 291 291 291 292 292 293 292 292 292 292 292 293 292 286 284 286 285 288 289 288 287 286 285 283 283 285 286 286 288 289 290 291 292 293 294
295 294 294 293 294 294 292 292 291 291 290 290 290 290 290 291 290 291 290 290 291 292 290 288 286 287 287 285 285 284 284 281 283 284 284 285 287 288 290 290 290 291 292
294 293 294 293 292 292 292 291 290 290 289 289 288 289 288 289 289 289 289 288 287 288 290 283 285 286 285 284 282 283 283 283 284 283 284 285 286 288 288 288 289 290 291
291 292 292 291 291 290 290 289 289 288 288 287 288 287 287 285 287 287 286 286 286 286 287 282 281 282 282 283 282 281 281 281 282 283 284 285 286 286 286 287 287 288 288
289 290 289 289 289 289 289 289 288 288 288 287 287 285 285 285 284 284 284 284 284 283 285 285 280 281 280 281 280 280 281 282 282 282 283 284 284 284 285 286 286 287 287
288 288 288 288 288 288 287 287 286 287 287 286 287 285 285 284 284 283 283 284 283 283 283 283 283 279 279 279 280 280 279 281 281 281 282 282 283 283 284 285 285 284 284
286 286 286 286 286 286 285 285 285 285 286 285 285 284 284 284 285 284 283 284 283 283 281 281 280 278 277 277 277 280 279 281 281 282 281 282 282 283 283 283 283 283 283
285 285 284 284 284 284 286 288 287 284 284 284 283 283 283 283 283 286 286 286 284 282 280 280 280 278 278 278 280 279 279 278 279 283 281 280 282 281 282 282 283 283 283
283 283 283 284 283 284 287 287 288 285 283 284 283 283 282 282 282 283 286 286 284 285 284 282 280 279 279 279 280 278 278 278 278 280 280 277 280 279 281 281 283 283 283
282 282 283 283 283 284 286 287 287 286 285 284 284 283 283 281 281 281 282 282 282 282 282 281 282 281 281 281 281 280 279 279 280 279 278 273 278 278 280 281 282 283 283
280 281 282 282 283 284 285 286 286 285 285 284 283 284 283 282 282 283 281 281 280 280 283 283 282 282 282 282 281 280 277 276 274 275 277 275 276 276 277 279 281 282 281
277 280 281 282 282 282 284 285 285 284 284 284 283 282 282 282 284 283 281 281 279 279 278 279 279 281 282 281 281 280 279 275 274 272 275 273 275 275 273 278 279 279 278
Wind_Speed
10 10 9 9 8 7 6 6 5 4 4 4 3 3 3 3 3 2 2 4 5 1 5 7 7 8 9 11 13 12 14 15 13 12 13 13 14 12 13 12 13 14 15
11 11 10 9 8 7 6 6 6 5 4 4 4 3 2 2 3 3 2 3 8 2 4 6 7 8 13 10 8 10 13 12 9 12 12 10 9 9 10 13 13 13 13
14 13 10 10 9 7 8 7 6 5 5 4 4 3 3 3 3 4 4 3 5 11 8 6 8 9 11 8 6 12 11 9 10 11 9 9 9 11 12 12 11 12 12
16 14 11 10 10 9 8 7 7 6 5 5 4 4 4 4 4 5 4 4 4 5 9 12 11 10 8 5 6 11 8 8 10 7 7 8 10 9 9 9 10 11 12
17 13 11 11 12 9 8 8 8 7 6 6 4 3 3 4 4 4 6 5 5 4 4 7 8 10 6 5 5 6 6 8 8 7 9 9 9 9 10 11 11 11 12
17 14 11 11 12 10 9 9 10 7 6 6 5 4 3 3 3 4 5 5 5 5 4 3 2 4 5 4 4 6 7 8 7 8 8 8 8 8 8 10 11 11 11
18 16 11 13 12 12 12 13 9 12 6 8 7 4 3 4 5 5 5 5 5 4 3 3 2 2 4 6 6 8 8 8 7 6 7 7 7 8 9 10 10 11 11
17 15 14 13 15 11 14 14 13 9 6 11 6 5 5 4 4 5 5 5 6 4 5 4 4 4 4 4 8 11 9 7 7 7 8 8 8 9 10 10 10 11 11
15 17 17 13 14 12 12 15 14 14 10 10 9 3 4 5 7 5 7 6 6 4 4 4 5 5 6 6 9 8 7 7 7 7 8 8 9 10 10 10 11 11 11
16 17 15 15 15 12 13 12 11 11 11 10 7 6 3 1 5 5 6 8 7 6 5 4 5 6 7 6 7 7 6 8 7 7 8 8 9 10 10 10 10 11 11
16 16 16 16 14 11 13 15 14 13 9 9 8 6 6 4 3 3 5 7 8 8 6 5 5 6 7 7 6 5 5 7 6 6 6 7 8 9 9 9 10 10 11
11 16 16 15 14 13 14 13 14 17 13 10 9 8 8 7 8 5 3 6 8 8 8 6 7 6 7 7 6 4 5 6 6 6 7 8 8 8 9 10 10 10 12
9 15 17 16 14 16 15 13 13 14 15 14 13 10 8 7 4 7 6 5 4 4 5 6 7 7 7 7 6 2 2 5 5 5 7 7 8 8 9 10 10 11 11
10 13 14 16 17 16 16 15 12 12 13 12 15 11 9 8 8 7 7 7 4 5 6 6 8 7 7 7 6 4 3 3 6 6 6 6 7 8 9 10 11 12 12
9 12 14 16 17 16 17 17 13 15 14 14 14 13 10 8 8 7 7 7 6 7 10 10 7 11 8 8 8 5 5 4 8 8 7 7 8 9 10 10 11 12 13
12 12 14 15 16 16 17 17 15 15 16 13 12 15 13 9 9 8 8 7 7 6 6 5 10 9 11 8 8 7 6 6 11 9 8 8 9 10 11 12 12 13 14
11 13 13 14 15 16 16 16 17 16 18 18 16 16 17 13 10 9 9 9 8 7 6 4 7 9 13 11 8 7 5 7 5 9 10 10 10 11 11 11 13 13 15
11 12 12 13 13 15 16 17 18 16 18 19 18 17 17 11 14 12 9 11 10 10 6 9 9 9 10 11 9 9 7 6 7 8 11 12 13 10 10 11 14 15 16
12 12 12 12 12 14 15 16 18 19 18 18 17 18 18 16 16 11 12 10 9 7 9 6 6 7 5 8 9 8 8 9 7 10 12 12 12 10 9 12 15 17 16
12 12 11 12 13 13 14 14 15 18 18 17 18 18 18 19 19 16 14 13 10 9 8 8 7 8 8 7 8 8 8 8 7 7 10 9 9 10 12 15 16 16 15
11 11 11 11 12 12 10 14 15 16 18 18 18 18 19 20 26 22 14 14 13 10 9 8 8 7 9 7 11 7 7 5 5 5 5 4 4 5 6 10 12 15 14
10 9 10 12 13 10 18 22 20 15 17 19 19 18 18 21 24 30 30 29 24 19 15 11 10 11 11 8 8 7 6 4 3 2 2 5 5 7 7 8 15 17 18
13 12 10 10 14 13 20 23 24 17 16 19 20 19 17 15 20 20 28 27 29 31 27 19 18 14 12 11 11 10 8 6 4 4 2 8 6 8 8 9 19 19 19
13 13 13 12 12 11 21 23 24 18 19 21 20 20 19 20 20 22 20 20 19 20 20 13 14 11 9 11 10 8 8 6 5 5 4 5 5 7 7 9 19 20 19
13 13 12 14 14 14 19 23 21 16 19 22 17 18 20 19 23 32 21 22 18 16 21 22 16 17 17 19 14 9 7 7 5 5 5 5 5 5 8 10 10 14 15
16 13 15 14 17 18 21 23 20 12 17 14 16 17 25 22 27 34 23 20 19 18 17 15 12 16 18 15 19 11 9 8 6 2 6 5 4 2 4 5 7 8 9
Wind_Direction
188 185 188 185 185 179 181 176 163 158 145 129 117 123 115 105 115 130 110 335 323 180 145 141 130 123 119 91 86 94 85 69 64 70 54 45 47 45 47 42 45 36 30
189 188 186 187 184 186 177 176 172 166 160 152 141 132 111 117 123 139 128 109 6 351 123 125 129 137 112 95 94 108 90 69 67 75 60 52 49 46 48 50 38 32 28
192 189 186 185 185 182 175 168 165 167 167 157 146 148 144 147 144 144 144 143 109 44 49 107 90 108 101 94 97 101 79 78 86 70 61 63 61 52 44 37 30 29 28
193 191 187 188 179 177 179 177 171 173 178 178 171 172 166 157 152 159 146 145 119 110 65 51 63 74 85 107 109 86 85 91 83 75 67 64 53 41 32 30 30 30 26
196 193 193 187 177 180 184 179 176 182 178 174 163 146 141 145 136 154 140 136 116 111 106 62 48 42 45 62 90 103 101 88 80 72 64 50 42 33 29 23 20 19 17
194 196 195 187 182 181 183 183 178 181 182 160 140 127 132 157 165 157 145 141 130 127 130 135 132 73 42 79 102 105 97 86 79 61 52 41 32 26 25 21 19 17 13
195 196 193 185 188 190 187 183 175 170 166 163 139 134 122 168 190 183 173 161 158 148 147 150 153 143 110 108 130 106 95 72 64 52 41 32 24 20 14 10 10 4 2
197 197 193 189 188 187 190 189 180 174 174 184 183 157 174 176 200 203 187 183 176 168 164 162 148 147 158 155 102 78 61 48 42 34 25 18 14 11 8 360 358 355 352
207 199 198 193 190 193 190 189 189 182 177 191 213 224 163 208 157 178 198 192 186 187 179 171 168 162 161 146 131 97 63 46 29 19 14 13 8 3 358 356 354 350 347
213 212 207 201 194 192 196 197 195 194 185 177 192 222 251 126 186 170 205 203 200 204 199 193 183 177 170 165 118 82 60 31 23 12 6 1 358 354 352 350 348 347 344
215 214 214 209 206 203 201 189 189 201 206 194 191 166 196 188 229 178 166 185 210 212 202 204 189 182 181 175 167 99 52 29 11 356 350 348 347 344 339 339 339 339 340
216 215 207 206 210 210 208 203 197 194 196 211 205 202 184 177 189 176 159 175 197 190 195 188 195 191 184 183 148 115 39 14 351 338 334 334 335 333 332 330 330 334 337
218 217 207 205 200 204 207 206 208 207 203 197 198 200 207 212 180 195 184 147 164 156 191 206 193 187 185 179 168 228 77 353 326 309 316 319 318 318 319 318 326 332 333
232 227 218 214 211 206 202 201 205 210 211 214 210 208 203 206 198 188 171 156 166 177 179 164 190 196 188 188 168 181 223 253 278 281 295 293 299 309 311 316 319 322 324
248 234 224 221 217 215 209 201 203 205 207 208 214 212 216 209 203 200 189 181 179 186 205 185 174 195 191 181 189 220 238 227 254 268 274 279 293 297 295 299 311 312 315
249 233 227 222 225 218 211 211 212 210 207 208 210 206 204 204 202 201 199 195 196 194 197 164 200 182 186 189 179 224 233 252 249 253 252 262 277 281 293 306 309 311 310
263 247 237 224 219 218 221 218 219 219 214 209 205 204 205 202 201 196 195 191 192 184 174 163 185 176 188 192 202 215 235 248 251 246 256 263 270 278 292 296 298 301 304
277 258 247 235 227 219 218 221 224 218 220 218 210 213 208 195 204 198 195 191 193 183 173 164 182 185 196 203 201 209 216 236 245 243 248 259 262 269 283 298 296 296 298
294 273 257 242 234 232 222 223 225 226 222 224 217 210 208 199 204 194 194 196 192 183 178 172 157 183 188 196 202 212 218 227 228 235 248 252 253 258 275 280 285 288 292
305 286 265 255 248 238 232 229 228 230 227 223 223 216 210 205 204 197 194 201 183 184 188 172 173 173 188 183 199 195 203 221 220 209 228 229 250 262 269 277 281 288 290
310 299 279 262 254 244 236 231 229 230 233 228 223 217 213 213 206 196 191 189 186 181 188 186 187 181 186 176 203 183 203 213 241 230 242 223 278 290 290 288 283 283 287
318 306 287 275 261 248 242 239 234 225 229 228 224 224 222 208 208 198 198 192 187 180 190 191 189 202 195 188 178 185 181 193 234 182 221 284 293 293 283 275 272 276 281
317 308 293 274 273 265 258 249 240 236 232 227 225 221 216 213 211 206 203 196 198 197 193 189 191 190 190 182 172 178 185 189 207 150 217 283 252 252 244 254 258 264 266
310 308 299 289 275 267 265 254 245 239 236 236 226 225 220 214 206 200 197 198 197 199 200 200 199 176 174 169 177 171 175 195 242 265 235 251 272 245 261 260 265 261 258
300 297 296 293 284 277 266 263 253 240 240 238 236 228 225 220 212 206 197 200 195 197 198 197 188 167 163 169 163 147 171 170 220 255 194 236 265 257 272 258 256 246 245
296 295 290 287 281 276 270 266 259 249 246 240 233 234 226 216 207 205 205 200 199 189 177 177 180 173 171 176 176 175 172 185 192 220 207 203 237 246 283 232 233 243 264